[Iaude] MPEC G122: 2024 GZ1 [a=1.40,e=0.37,i=16.1,H=26.8]
    mpec at cfa.harvard.edu 
    mpec at cfa.harvard.edu
       
    Tue Apr  9 16:47:41 EDT 2024
    
    
  
M.P.E.C. 2024-G122                                Issued 2024 April 9, 20:46 UT
     The Minor Planet Electronic Circulars contain information on unusual
         minor planets, routine data on comets and natural satellites,
         and occasional editorial announcements.  They are published
    on behalf of Division F of the International Astronomical Union by the
          Minor Planet Center, Smithsonian Astrophysical Observatory,
                          Cambridge, MA 02138, U.S.A.
			  
             Prepared using the Tamkin Foundation Computer Network
                              MPC at CFA.HARVARD.EDU
            URL https://www.minorplanetcenter.net/    ISSN 1523-6714
                                    2024 GZ1                                    
Observations:
     K24G01Z*1C2024 04 04.27226612 59 11.951-09 37 43.64         20.04GVEG122G96
     K24G01Z 1C2024 04 04.27781812 59 07.847-09 39 58.14         19.91GVEG122G96
     K24G01Z 1C2024 04 04.28337312 59 03.815-09 42 09.86         20.01GVEG122G96
     K24G01Z 1C2024 04 04.28892512 58 59.718-09 44 24.36         19.63GVEG122G96
     K24G01Z KC2024 04 04.36143412 58 06.938-10 13 03.94         19.78GVEG122I52
     K24G01Z KC2024 04 04.36234212 58 06.265-10 13 25.14         20.16GVEG122I52
     K24G01Z KC2024 04 04.36323912 58 05.614-10 13 46.27         19.93GVEG122I52
     K24G01Z |C2024 04 05.18391012 50 10.830-14 58 01.80         20.8 GVEG122807
     K24G01Z |C2024 04 05.18662012 50 09.170-14 58 52.80         20.5 GVEG122807
     K24G01Z |C2024 04 05.18924012 50 07.570-14 59 42.40         20.6 GVEG122807
     K24G01Z |C2024 04 09.08083012 26 02.130-27 57 13.30         21.8 GVEG122807
     K24G01Z |C2024 04 09.10285012 25 55.390-27 59 59.20         21.8 GVEG122807
     K24G01Z |C2024 04 09.11018012 25 53.150-28 00 54.50         22.0 GVEG122807
Observer details:
807 Cerro Tololo Observatory, La Serena.  Observers T. Linder, R. Holmes.
    0.61-m f/6.8 Ritchey-Chretien + CCD.
G96 Mt. Lemmon Survey.  Observer G. J. Leonard.  Measurers T. Beuden, V. F.
    Carvajal, D. Fay, J. B. Fazekas, D. C. Fuls, A. R. Gibbs, A. D. Grauer, H.
    Groeller, J. K. Hogan, R. A. Kowalski, S. M. Larson, G. J. Leonard, D.
    Rankin, R. L. Seaman, F. C. Shelly, K. W. Wierzchos.  1.5-m reflector +
    10K CCD.
I52 Steward Observatory, Mt. Lemmon Station.  Observer R. A. Kowalski.
    Measurers T. Beuden, V. F. Carvajal, D. Fay, J. B. Fazekas, D. C. Fuls, A.
    R. Gibbs, A. D. Grauer, H. Groeller, J. K. Hogan, R. A. Kowalski, S. M.
    Larson, G. J. Leonard, D. Rankin, R. L. Seaman, F. C. Shelly, K. W.
    Wierzchos.  1.0-m prime focus + CCD.
Orbital elements:
2024 GZ1                                                 Earth MOID = 0.0258 AU
Epoch 2024 Mar. 31.0 TT = JDT 2460400.5                 MPC                     
M  28.15965              (2000.0)            P               Q                  
n   0.59555769     Peri.  116.17734     -0.64132854     -0.76418704             
a   1.3991153      Node    14.36630     +0.56724533     -0.53250387             
e   0.3715849      Incl.   16.06754     +0.51665312     -0.36394752             
P   1.65           H   26.88          G   0.15           U   8                  
Residuals in seconds of arc
240404 G96  0.1+  0.1-    240404 I52  0.1-  0.2+    240409 807  0.3+  0.3-
240404 G96  0.2-  0.7-    240404 I52  0.2-  0.1+    240409 807  0.1-  0.2+
240404 G96 (0.5+  1.2+)   240405 807  0.0   0.1+    240409 807  0.0   0.1-
240404 G96  0.2+  0.1+    240405 807  0.1-  0.1+
240404 I52  0.2+  0.2+    240405 807  0.1-  0.3-
Ephemeris:
2024 GZ1                 a,e,i = 1.40, 0.37, 16                  q = 0.8792
Date    TT    R. A. (2000) Decl.     Delta      r    Elong.  Phase     V
2024 03 10    22 55 04.7 +54 52 54   0.1490  0.9259    59.3   112.8    26.9
...
2024 03 25    20 21 10.5 +67 46 50   0.05103 0.9870    77.0   100.1    24.0
...
2024 04 02    13 32 26.6 +11 17 25   0.02846 1.0263   160.1    19.4    20.2
...
2024 04 08    12 31 02.6 -25 27 02   0.06016 1.0579   159.8    19.1    21.9
2024 04 09    12 26 18.8 -27 47 14   0.06669 1.0633   157.1    21.5    22.2
2024 04 10    12 22 19.1 -29 40 57   0.07335 1.0688   155.0    23.4    22.5
...
2024 04 16    12 07 57.6 -36 00 19   0.1152  1.1021   147.1    29.6    23.7
...
2024 04 24    12 01 45.0 -39 00 09   0.1739  1.1477   141.9    32.7    24.8
...
2024 05 09    12 06 29.5 -40 05 57   0.2918  1.2347   135.5    35.0    26.1
A. U. Tomatic                (C) Copyright 2024 MPC           M.P.E.C. 2024-G122
    
    
More information about the Iaude
mailing list